TimeEST,TemperatureF,Dew PointF,Humidity,Sea Level PressureIn,VisibilityMPH,Wind Direction,Wind SpeedMPH,Gust SpeedMPH,PrecipitationIn,Events,Conditions,WindDirDegrees,DateUTC
12:53 AM,30.0,21.0,69,29.84,10.0,NW,24.2,33.4,N/A,,Overcast,320,2011-12-28 05:53:00
1:53 AM,30.0,19.9,66,29.86,10.0,NW,24.2,32.2,N/A,,Overcast,320,2011-12-28 06:53:00
2:53 AM,28.9,19.0,67,29.90,10.0,NW,15.0,25.3,N/A,,Overcast,320,2011-12-28 07:53:00
3:50 AM,28.4,17.6,64,29.91,10.0,NW,20.7,28.8,N/A,,Overcast,320,2011-12-28 08:50:00
3:53 AM,28.9,18.0,64,29.93,10.0,NNW,20.7,28.8,N/A,,Overcast,330,2011-12-28 08:53:00
4:53 AM,28.9,17.1,61,29.95,10.0,NW,17.3,28.8,N/A,,Overcast,320,2011-12-28 09:53:00
5:53 AM,27.0,16.0,63,29.97,10.0,NW,11.5,-,N/A,,Overcast,320,2011-12-28 10:53:00
6:12 AM,26.6,15.8,64,29.95,10.0,NNW,12.7,-,N/A,,Overcast,330,2011-12-28 11:12:00
6:53 AM,27.0,16.0,63,29.99,10.0,NNW,15.0,21.9,N/A,,Overcast,330,2011-12-28 11:53:00
7:53 AM,26.1,16.0,66,30.01,10.0,NNW,9.2,-,N/A,,Overcast,330,2011-12-28 12:53:00
8:53 AM,26.1,17.1,69,30.04,10.0,NW,5.8,-,N/A,,Mostly Cloudy,320,2011-12-28 13:53:00
9:53 AM,28.0,17.1,63,30.06,10.0,NNW,9.2,-,N/A,,Overcast,340,2011-12-28 14:53:00
10:53 AM,28.9,18.0,64,30.06,10.0,NNW,8.1,-,N/A,,Overcast,330,2011-12-28 15:53:00
11:53 AM,28.9,18.0,64,30.06,10.0,NNW,6.9,-,N/A,,Overcast,340,2011-12-28 16:53:00
12:53 PM,30.0,18.0,61,30.04,10.0,NW,10.4,-,N/A,,Overcast,320,2011-12-28 17:53:00
1:53 PM,30.9,18.0,59,30.03,10.0,West,5.8,-,N/A,,Overcast,280,2011-12-28 18:53:00
2:02 PM,30.2,17.6,60,30.00,10.0,Variable,5.8,-,N/A,,Overcast,0,2011-12-28 19:02:00
2:31 PM,30.2,19.4,64,30.01,10.0,Variable,4.6,-,N/A,,Overcast,0,2011-12-28 19:31:00
2:53 PM,30.9,19.0,61,30.04,10.0,Variable,4.6,-,N/A,,Scattered Clouds,0,2011-12-28 19:53:00
3:13 PM,32.0,19.4,60,30.01,10.0,NW,6.9,-,N/A,,Mostly Cloudy,310,2011-12-28 20:13:00
3:44 PM,30.2,19.4,64,30.02,10.0,Variable,4.6,-,N/A,,Scattered Clouds,0,2011-12-28 20:44:00
3:53 PM,30.9,19.0,61,30.05,10.0,Variable,4.6,-,N/A,,Scattered Clouds,0,2011-12-28 20:53:00
4:03 PM,32.0,19.4,60,30.02,10.0,Variable,4.6,-,N/A,,Mostly Cloudy,0,2011-12-28 21:03:00
4:53 PM,30.0,19.0,64,30.05,10.0,Variable,4.6,-,N/A,,Mostly Cloudy,0,2011-12-28 21:53:00
5:53 PM,28.0,18.0,66,30.06,10.0,Calm,Calm,-,N/A,,Clear,0,2011-12-28 22:53:00
6:53 PM,28.0,19.9,72,30.05,10.0,Calm,Calm,-,N/A,,Partly Cloudy,0,2011-12-28 23:53:00
7:53 PM,28.0,21.0,75,30.05,10.0,South,3.5,-,N/A,,Overcast,190,2011-12-29 00:53:00
8:53 PM,26.1,19.9,78,30.04,10.0,SSW,3.5,-,N/A,,Clear,200,2011-12-29 01:53:00
9:53 PM,27.0,21.0,78,30.03,10.0,SSW,3.5,-,N/A,,Overcast,200,2011-12-29 02:53:00
10:53 PM,28.9,21.9,75,30.02,10.0,SSW,4.6,-,N/A,,Overcast,210,2011-12-29 03:53:00
11:53 PM,28.9,23.0,78,29.99,10.0,South,4.6,-,N/A,,Overcast,190,2011-12-29 04:53:00